When you browse on this site, cookies collect data to enhance your experience and personalize the content and advertising you see.
Visit our Privacy Policy to learn more. By continuing to use the site, you agree to this use of cookies and data.
  • In Hungary
  • List of Countries
  • For 7 days
  • Water Temperature
  • Satellite Maps
  • Weather Map
  • News
  • Weather Widgets
  • user-avatar
    Login

    Hourly Weather Lisburn

    Today, 16 January, Wednesday

    Time Temperature Precipitation Wind Pressure Humidity
    00:00 +6°C° 0 mm 7 mps 747 mmHg 86%
    01:00 +6°C° 0.1 mm 7 mps 747 mmHg 85%
    02:00 +6°C° 0.1 mm 7 mps 746 mmHg 85%
    03:00 +6°C° 0.1 mm 7 mps 745 mmHg 85%
    04:00 +5°C° 0.2 mm 7 mps 745 mmHg 85%
    05:00 +5°C° 0.2 mm 6 mps 745 mmHg 86%
    06:00 +5°C° 0.2 mm 5 mps 745 mmHg 86%
    07:00 +3°C° 0 mm 5 mps 745 mmHg 85%
    08:00 +3°C° 0 mm 5 mps 745 mmHg 84%
    09:00 +2°C° 0 mm 5 mps 745 mmHg 83%
    10:00 +2°C° 0 mm 5 mps 745 mmHg 80%
    11:00 +3°C° 0 mm 6 mps 745 mmHg 77%
    12:00 +4°C° 0 mm 6 mps 745 mmHg 74%
    13:00 +4°C° 0 mm 6 mps 745 mmHg 75%
    14:00 +5°C° 0 mm 5 mps 745 mmHg 75%
    15:00 +5°C° 0 mm 4 mps 744 mmHg 76%
    16:00 +4°C° 0 mm 4 mps 745 mmHg 77%
    17:00 +3°C° 0 mm 4 mps 745 mmHg 79%
    18:00 +3°C° 0 mm 4 mps 745 mmHg 80%
    19:00 +1°C° 0 mm 4 mps 746 mmHg 81%
    20:00 +1°C° 0 mm 4 mps 746 mmHg 82%
    21:00 +1°C° 0 mm 4 mps 747 mmHg 83%
    22:00 +1°C° 0 mm 4 mps 749 mmHg 81%
    23:00 +1°C° 0 mm 5 mps 750 mmHg 80%

    Tomorrow, 17 January, Thursday

    Time Temperature Precipitation Wind Pressure Humidity
    00:00 +2°C° 0 mm 6 mps 751 mmHg 78%
    01:00 +1°C° 0 mm 6 mps 752 mmHg 74%
    02:00 +1°C° 0 mm 6 mps 753 mmHg 70%
    03:00 -1°C° 0 mm 6 mps 754 mmHg 66%
    04:00 0°C° 0 mm 5 mps 755 mmHg 67%
    05:00 0°C° 0 mm 5 mps 756 mmHg 68%
    06:00 0°C° 0 mm 5 mps 757 mmHg 69%
    07:00 0°C° 0 mm 4 mps 757 mmHg 69%
    08:00 0°C° 0 mm 4 mps 758 mmHg 69%
    09:00 0°C° 0 mm 3 mps 759 mmHg 70%
    10:00 +1°C° 0 mm 3 mps 759 mmHg 69%
    11:00 +3°C° 0 mm 2 mps 759 mmHg 69%
    12:00 +4°C° 0 mm 2 mps 759 mmHg 68%
    13:00 +4°C° 0 mm 2 mps 759 mmHg 69%
    14:00 +4°C° 0 mm 2 mps 759 mmHg 71%
    15:00 +4°C° 0 mm 2 mps 759 mmHg 72%
    16:00 +3°C° 0 mm 2 mps 759 mmHg 75%
    17:00 +2°C° 0 mm 2 mps 759 mmHg 78%
    18:00 +1°C° 0 mm 2 mps 759 mmHg 81%
    19:00 +2°C° 0 mm 2 mps 758 mmHg 79%
    20:00 +1°C° 0 mm 3 mps 758 mmHg 76%
    21:00 +1°C° 0 mm 3 mps 758 mmHg 74%
    22:00 +1°C° 0 mm 4 mps 757 mmHg 71%
    23:00 +1°C° 0 mm 4 mps 756 mmHg 69%

    Day after tomorrow, 18 January, Friday

    Time Temperature Precipitation Wind Pressure Humidity
    00:00 +2°C° 0 mm 5 mps 755 mmHg 66%
    01:00 +2°C° 0.2 mm 6 mps 754 mmHg 70%
    02:00 +2°C° 0.2 mm 6 mps 754 mmHg 74%
    03:00 +2°C° 0.2 mm 7 mps 753 mmHg 78%
    04:00 +3°C° 0.9 mm 7 mps 752 mmHg 82%
    05:00 +3°C° 0.9 mm 7 mps 751 mmHg 86%
    06:00 +3°C° 0.9 mm 7 mps 750 mmHg 90%
    07:00 +4°C° 0.4 mm 6 mps 750 mmHg 92%
    08:00 +5°C° 0.4 mm 5 mps 750 mmHg 93%
    09:00 +5°C° 0.4 mm 5 mps 749 mmHg 95%
    10:00 +5°C° 0.2 mm 4 mps 749 mmHg 94%
    11:00 +5°C° 0.2 mm 3 mps 749 mmHg 93%
    12:00 +7°C° 0.2 mm 2 mps 748 mmHg 93%
    13:00 +6°C° 0.1 mm 2 mps 748 mmHg 92%
    14:00 +6°C° 0.1 mm 2 mps 748 mmHg 91%
    15:00 +6°C° 0.1 mm 2 mps 747 mmHg 91%
    16:00 +6°C° 0.1 mm 2 mps 747 mmHg 92%
    17:00 +5°C° 0.1 mm 2 mps 747 mmHg 94%
    18:00 +5°C° 0.1 mm 2 mps 747 mmHg 95%
    19:00 +5°C° 0.1 mm 2 mps 747 mmHg 95%
    20:00 +5°C° 0.1 mm 2 mps 747 mmHg 95%
    21:00 +4°C° 0.1 mm 2 mps 747 mmHg 95%
    22:00 +4°C° 0 mm 2 mps 748 mmHg 95%
    23:00 +4°C° 0 mm 2 mps 748 mmHg 95%

    19 January, Saturday

    Time Temperature Precipitation Wind Pressure Humidity
    00:00 +4°C° 0 mm 2 mps 748 mmHg 95%
    01:00 +5°C° 0 mm 1 mps 748 mmHg 95%
    02:00 +5°C° 0 mm 1 mps 748 mmHg 95%
    03:00 +5°C° 0 mm 1 mps 748 mmHg 95%
    04:00 +5°C° 0 mm 1 mps 748 mmHg 95%
    05:00 +4°C° 0 mm 1 mps 749 mmHg 95%
    06:00 +3°C° 0 mm 0 mps 749 mmHg 95%
    07:00 +5°C° 0 mm 1 mps 749 mmHg 95%
    08:00 +5°C° 0 mm 1 mps 750 mmHg 95%
    09:00 +4°C° 0 mm 2 mps 750 mmHg 95%
    10:00 +5°C° 0 mm 2 mps 751 mmHg 94%
    11:00 +6°C° 0 mm 2 mps 751 mmHg 93%
    12:00 +6°C° 0 mm 2 mps 752 mmHg 92%
    13:00 +6°C° 0 mm 2 mps 752 mmHg 91%
    14:00 +6°C° 0 mm 2 mps 752 mmHg 91%
    15:00 +6°C° 0 mm 2 mps 752 mmHg 91%
    16:00 +5°C° 0 mm 2 mps 753 mmHg 92%
    17:00 +5°C° 0 mm 1 mps 753 mmHg 93%
    18:00 +4°C° 0 mm 1 mps 754 mmHg 94%
    19:00 +4°C° 0 mm 1 mps 755 mmHg 94%
    20:00 +4°C° 0 mm 1 mps 755 mmHg 94%
    21:00 +4°C° 0 mm 1 mps 756 mmHg 94%
    22:00 +4°C° 0 mm 1 mps 756 mmHg 94%
    23:00 +4°C° 0 mm 1 mps 757 mmHg 94%

    20 January, Sunday

    Time Temperature Precipitation Wind Pressure Humidity
    00:00 +3°C° 0 mm 1 mps 757 mmHg 94%
    01:00 +3°C° 0 mm 1 mps 758 mmHg 94%
    02:00 +2°C° 0 mm 2 mps 758 mmHg 94%
    03:00 +2°C° 0 mm 2 mps 758 mmHg 95%
    04:00 +2°C° 0 mm 2 mps 758 mmHg 95%
    05:00 +2°C° 0 mm 2 mps 759 mmHg 95%
    06:00 +2°C° 0 mm 2 mps 759 mmHg 95%
    07:00 +2°C° 0 mm 2 mps 760 mmHg 95%
    08:00 +2°C° 0 mm 2 mps 761 mmHg 95%
    09:00 +3°C° 0 mm 2 mps 761 mmHg 94%
    10:00 +4°C° 0 mm 2 mps 762 mmHg 92%
    11:00 +4°C° 0 mm 3 mps 762 mmHg 91%
    12:00 +5°C° 0 mm 3 mps 763 mmHg 89%
    13:00 +5°C° 0 mm 3 mps 763 mmHg 89%
    14:00 +5°C° 0 mm 3 mps 763 mmHg 89%
    15:00 +5°C° 0 mm 3 mps 764 mmHg 90%
    16:00 +4°C° 0 mm 3 mps 764 mmHg 91%
    17:00 +3°C° 0 mm 3 mps 765 mmHg 92%
    18:00 +3°C° 0 mm 2 mps 765 mmHg 93%
    19:00 +3°C° 0 mm 2 mps 766 mmHg 93%
    20:00 +3°C° 0 mm 2 mps 767 mmHg 93%
    21:00 +3°C° 0 mm 2 mps 767 mmHg 93%
    22:00 +3°C° 0 mm 2 mps 768 mmHg 93%
    23:00 +4°C° 0 mm 1 mps 768 mmHg 92%

    21 January, Monday

    Time Temperature Precipitation Wind Pressure Humidity
    00:00 +4°C° 0 mm 1 mps 768 mmHg 92%
    01:00 +4°C° 0 mm 1 mps 768 mmHg 92%
    02:00 +3°C° 0 mm 1 mps 768 mmHg 93%
    03:00 +2°C° 0 mm 0 mps 768 mmHg 93%
    04:00 +3°C° 0 mm 1 mps 768 mmHg 93%
    05:00 +3°C° 0 mm 1 mps 767 mmHg 94%
    06:00 +2°C° 0 mm 1 mps 767 mmHg 94%
    07:00 +1°C° 0 mm 2 mps 767 mmHg 95%
    08:00 +1°C° 0 mm 2 mps 767 mmHg 95%
    09:00 +1°C° 0 mm 2 mps 767 mmHg 95%
    10:00 +1°C° 0 mm 3 mps 766 mmHg 92%
    11:00 +1°C° 0 mm 4 mps 766 mmHg 89%
    12:00 +2°C° 0 mm 5 mps 765 mmHg 85%
    13:00 +2°C° 0 mm 5 mps 764 mmHg 85%
    14:00 +2°C° 0 mm 6 mps 763 mmHg 85%
    15:00 +3°C° 0 mm 6 mps 762 mmHg 85%
    16:00 +3°C° 0.2 mm 7 mps 762 mmHg 87%
    17:00 +3°C° 0.2 mm 7 mps 761 mmHg 88%
    18:00 +2°C° 0.2 mm 8 mps 760 mmHg 90%
    19:00 +3°C° 0.2 mm 7 mps 760 mmHg 88%
    20:00 +3°C° 0.2 mm 6 mps 760 mmHg 86%
    21:00 +2°C° 0.2 mm 5 mps 760 mmHg 84%
    22:00 +2°C° 0.1 mm 5 mps 760 mmHg 84%
    23:00 +1°C° 0.1 mm 5 mps 760 mmHg 84%
    Show more